Sault Ste Marie, MI

2:49 PM EST on November 20, 2017 (GMT -0500)
Sault Ste Marie Municipal / Sanderson Field

Weather History for KANJ - July, 2013

Change the Weather History Date:

Monday, July 1, 2013

  Actual Average Record
Temperature  
Mean Temperature 65 °F 64 °F  
Max Temperature 76 °F 75 °F 97 °F (1931)
Min Temperature 54 °F 52 °F 37 °F (1982)
Degree Days  
Heating Degree Days 0 3  
Month to date heating degree days 0 3  
Since 1 June heating degree days 146 183  
Since 1 July heating degree days 0 3  
Cooling Degree Days 0 2  
Month to date cooling degree days 0 2  
Year to date cooling degree days 48 37  
Since 1 June cooling degree days 39 32  
Growing Degree Days 15 (Base 50)    
Moisture  
Dew Point 42 °F    
Average Humidity 47    
Maximum Humidity 72    
Minimum Humidity 21    
Precipitation  
Precipitation 0.00 in 0.08 in 1.69 in (1903)
Month to date precipitation 0.00 0.08  
Year to date precipitation 17.51 13.22  
Sea Level Pressure  
Sea Level Pressure 30.15 in    
Wind  
Wind Speed 5 mph (ENE)    
Max Wind Speed 14 mph    
Max Gust Speed 20 mph    
Visibility 10 miles    
Events      
T = Trace of Precipitation, MM = Missing Value Source: NWS Daily Summary

Daily Weather History Graph

Daily Weather History Graph

Search for Another Location

Airport or City:

Trip Planner

Search our weather history database for the weather conditions in past years. The results will help you decide how hot, cold, wet, or windy it might be!

Date:

Astronomy

Jul. 01, 2013 Rise Set
Actual Time 5:48 AM EDT 9:33 PM EDT
Civil Twilight 5:09 AM EDT 10:12 PM EDT
Nautical Twilight 4:17 AM EDT 11:04 PM EDT
Astronomical Twilight 3:03 AM EDT 12:18 AM EDT
Moon 1:32 AM EDT (7/1) 3:36 PM EDT (7/1)
Length of Visible Light 17h 02m
Length of Day
15h 45m
Waning Crescent, 35% of the Moon is Illuminated
Jul 1
Waning Crescent
Jul 8
New
Jul 15
First Quarter
Jul 22
Full
Jul 29
Last Quarter

Hourly Weather History & Observations

Time (EDT) Temp. Dew Point Humidity Pressure Visibility Wind Dir Wind Speed Gust Speed Precip Events Conditions
12:55 AM 57.0 °F 45.0 °F 64% 30.06 in 10.0 mi West 3.5 mph - N/A   Clear
1:55 AM 55.0 °F 46.0 °F 72% 30.07 in 10.0 mi West 3.5 mph - N/A   Clear
2:55 AM 55.0 °F 46.9 °F 74% 30.08 in 10.0 mi NNW 3.5 mph - N/A   Clear
3:55 AM 60.1 °F 46.0 °F 60% 30.09 in 10.0 mi NE 3.5 mph - N/A   Clear
4:55 AM 60.1 °F 46.0 °F 60% 30.10 in 10.0 mi ENE 5.8 mph - N/A   Clear
5:55 AM 57.9 °F 45.0 °F 62% 30.12 in 10.0 mi ENE 4.6 mph - N/A   Clear
6:55 AM 59.0 °F 44.1 °F 58% 30.15 in 10.0 mi ENE 10.4 mph 17.3 mph N/A   Mostly Cloudy
7:55 AM 60.1 °F 44.1 °F 55% 30.16 in 10.0 mi ENE 10.4 mph - N/A   Clear
8:55 AM 61.0 °F 44.1 °F 54% 30.17 in 10.0 mi East 9.2 mph - N/A   Clear
9:55 AM 63.0 °F 44.1 °F 50% 30.19 in 10.0 mi ENE 9.2 mph - N/A   Clear
10:55 AM 64.9 °F 42.1 °F 43% 30.19 in 10.0 mi Variable 5.8 mph - N/A   Clear
11:55 AM 68.0 °F 43.0 °F 40% 30.19 in 10.0 mi Variable 3.5 mph - N/A   Partly Cloudy
12:55 PM 70.0 °F 41.0 °F 35% 30.18 in 10.0 mi NNE 4.6 mph - N/A   Clear
1:55 PM 72.0 °F 41.0 °F 33% 30.18 in 10.0 mi East 5.8 mph - N/A   Clear
2:55 PM 73.0 °F 43.0 °F 34% 30.17 in 10.0 mi East 4.6 mph - N/A   Clear
3:55 PM 73.0 °F 44.1 °F 35% 30.17 in 10.0 mi SE 8.1 mph - N/A   Clear
4:55 PM 73.9 °F 37.0 °F 26% 30.17 in 10.0 mi Variable 3.5 mph - N/A   Clear
5:55 PM 75.0 °F 34.0 °F 22% 30.16 in 10.0 mi NNE 9.2 mph - N/A   Clear
6:55 PM 73.9 °F 35.1 °F 24% 30.16 in 10.0 mi East 5.8 mph - N/A   Clear
7:55 PM 73.0 °F 35.1 °F 25% 30.17 in 10.0 mi East 5.8 mph - N/A   Clear
8:55 PM 71.1 °F 37.9 °F 30% 30.17 in 10.0 mi ENE 4.6 mph - N/A   Clear
9:55 PM 64.9 °F 45.0 °F 48% 30.17 in 10.0 mi Calm Calm - N/A   Clear
10:55 PM 63.0 °F 45.0 °F 52% 30.19 in 10.0 mi Calm Calm - N/A   Clear
11:55 PM 61.0 °F 42.1 °F 50% 30.19 in 10.0 mi East 3.5 mph - N/A   Clear